Terminal Aerodrome Forecast
Issued by NWS

Home | Current Version | Previous Version | Text Only | Print | Product List | Glossary On
Versions: 1 2 3 4 5 6 7 8 9 10 11 12 13 14 15 16 17 18 19 20 21 22 23 24 25
000
FTUS43 KIND 220500
TAFBMG
TAF
KBMG 220522Z 2206/2306 VRB03KT P6SM SCT150
     FM221000 VRB02KT 3SM BR SCT008
     FM221300 21004KT P6SM SCT080
     FM222000 24007KT P6SM FEW035 BKN080
     FM230000 VRB02KT P6SM SCT080
      AMD LTD TO CLD VIS AND WIND TIL 221300=

USA.gov is the U.S. government's official web portal to all federal, state and local government web resources and services.